Tracking 23440 objects as of 13-Jun-2021
HD Live streaming from Space Station
objects crossing your sky now

EUTE 8 WEST A (AB 2)

Track EUTE 8 WEST A (AB 2) now!
EUTE 8 WEST A (AB 2) is classified as:


NORAD ID: 26927
Int'l Code: 2001-042A
Perigee: 36,287.0 km
Apogee: 36,293.4 km
Inclination: 1.9 °
Period: 1,461.5 minutes
Semi major axis: 42661 km
RCS: 14.2528 m2 (large)
Launch date: September 25, 2001
Source: European Telecommunications Satellite Organization (EUTE)
Launch site: FRENCH GUIANA (FRGUI)

European and American coverage.
aabbcc
Your satellite tracking list
Your tracking list is empty




NASA's NSSDC Master Catalog

Two Line Element Set (TLE):
1 26927U 01042A   21163.72424359  .00000026  00000-0  00000-0 0  9990
2 26927   1.9204  90.5630 0000745 208.0727  93.3314  0.98526542 72114
Source of the keplerian elements: AFSPC